FW4102 Weather Reports


Display with metric or nautical units.
time (UTC)temp
F
wind
direction
speed
MPH
gust
MPH
rain 1hr
in
rain 24hr
in
rain mn
in
humidity
%
barometer
mb
20260505014539 54 0 1.0 3.0 0.00 0.07 0.05 59 1023.2
20260505013037 54 211 1.0 5.0 0.00 0.07 0.05 60 1023.1
20260505011541 54 211 1.0 5.0 0.00 0.07 0.05 60 1022.9
20260505010101 55 0 0.0 4.0 0.00 0.07 0.05 60 1022.8
20260505004536 55 0 0.0 5.0 0.00 0.07 0.05 60 1022.7
20260505003042 54 0 1.0 5.0 0.00 0.07 0.05 62 1022.4
20260505001538 53 0 1.0 4.0 0.00 0.08 0.05 64 1022.2
20260505000044 54 198 0.0 4.0 0.00 0.08 0.05 66 1022.2
20260504234533 53 0 0.0 3.0 0.00 0.08 0.05 69 1022.2
20260504233035 53 192 1.0 3.0 0.00 0.08 0.05 69 1022.1
20260504231532 52 192 0.0 2.0 0.00 0.14 0.05 69 1022.1
20260504230043 51 0 0.0 0.0 0.00 0.14 0.05 69 1021.8
20260504224537 51 0 0.0 1.0 0.00 0.14 0.05 69 1021.9
20260504223036 51 192 0.0 2.0 0.00 0.14 0.05 69 1021.8
20260504221548 51 0 0.0 0.0 0.00 0.19 0.05 69 1021.6
20260504220037 51 0 0.0 0.0 0.00 0.18 0.04 69 1021.4
20260504214537 51 0 0.0 2.0 0.00 0.18 0.04 68 1021.3
20260504213052 50 0 0.0 3.0 0.00 0.18 0.04 68 1021.1
20260504211540 50 235 0.0 2.0 0.00 0.22 0.04 68 1020.7
20260504210038 51 0 0.0 2.0 0.00 0.22 0.04 68 1020.6
20260504204537 51 0 0.0 3.0 0.00 0.22 0.04 68 1020.5
20260504203046 51 234 1.0 3.0 0.00 0.22 0.04 68 1020.3
20260504201535 51 0 0.0 0.0 0.00 0.22 0.04 67 1020.2
20260504200035 51 0 0.0 4.0 0.00 0.22 0.04 67 1020.1
20260504194541 51 235 1.0 7.0 0.00 0.22 0.04 67 1020.0
20260504193034 52 0 1.0 6.0 0.00 0.22 0.04 67 1019.9
20260504191540 52 235 1.0 4.0 0.00 0.23 0.04 67 1019.9
20260504190034 52 235 0.0 4.0 0.01 0.23 0.04 67 1019.7
20260504184537 52 236 0.0 8.0 0.01 0.23 0.04 67 1019.6
20260504183036 52 200 1.0 5.0 0.01 0.23 0.04 66 1019.6
20260504181538 52 202 0.0 5.0 0.01 0.23 0.03 66 1019.5
20260504180045 52 0 0.0 0.0 0.00 0.22 0.03 66 1019.6
20260504174532 52 0 0.0 0.0 0.00 0.22 0.03 66 1019.6
20260504173035 52 0 0.0 0.0 0.01 0.22 0.03 66 1019.6
20260504171536 52 0 0.0 0.0 0.00 0.22 0.02 65 1019.7
20260504081545 55 0 0.0 4.0 0.00 0.81 0.65 64 1016.1
20260504044539 59 0 2.0 10.0 0.00 0.94 0.65 59 1013.8
20260504043037 60 265 1.0 12.0 0.00 0.94 0.65 58 1013.8
20260504041535 60 288 3.0 11.0 0.00 0.94 0.65 60 1013.7
20260504040057 59 232 2.0 11.0 0.00 0.94 0.65 59 1013.7
20260504034537 59 224 1.0 12.0 0.00 0.94 0.65 59 1013.7
20260504033036 59 217 3.0 9.0 0.00 0.94 0.65 58 1013.7
20260504031537 60 170 2.0 13.0 0.00 0.95 0.65 60 1013.8
20260504030036 58 217 4.0 14.0 0.00 0.95 0.65 58 1013.9
20260504024534 58 190 2.0 11.0 0.00 0.95 0.65 60 1014.0
20260504023037 58 320 1.0 10.0 0.00 0.95 0.65 61 1014.0
20260504021537 58 248 1.0 12.0 0.00 0.96 0.65 60 1014.1
20260504020037 58 265 4.0 11.0 0.00 0.96 0.65 59 1014.1